Copper Mountain, CO

11:30 AM MDT on June 26, 2017 (GMT -0600)
Copper Mountain

Weather History for KCCU - October, 2012

Change the Weather History Date:

Sunday, October 21, 2012

  Actual Average Record
Temperature  
Mean Temperature 45 °F -  
Max Temperature 53 °F - 60 °F (2003)
Min Temperature 37 °F - 10 °F (2008)
Degree Days  
Heating Degree Days 20    
Month to date heating degree days  
Cooling Degree Days 0    
Month to date cooling degree days  
Moisture  
Dew Point 12 °F    
Average Humidity 28    
Maximum Humidity 39    
Minimum Humidity 21    
Precipitation  
Precipitation 0.00 in - 0.02 in (2015)
Sea Level Pressure  
Sea Level Pressure 30.20 in    
Wind  
Wind Speed 12 mph (SW)    
Max Wind Speed 21 mph    
Max Gust Speed 25 mph    
Visibility 10 miles    
Events      
T = Trace of Precipitation, MM = Missing Value Source: NWS Daily Summary

Daily Weather History Graph

Daily Weather History Graph

Search for Another Location

Airport or City:

Trip Planner

Search our weather history database for the weather conditions in past years. The results will help you decide how hot, cold, wet, or windy it might be!

Date:

Astronomy

Oct. 21, 2012 Rise Set
Actual Time 7:21 AM MDT 6:16 PM MDT
Civil Twilight 6:54 AM MDT 6:43 PM MDT
Nautical Twilight 6:22 AM MDT 7:14 PM MDT
Astronomical Twilight 5:51 AM MDT 7:45 PM MDT
Moon 1:43 PM MDT (10/21) No Moon Set
Length of Visible Light 11h 49m
Length of Day
10h 54m
Waxing Crescent, 46% of the Moon is Illuminated
Oct 21
Waxing Crescent
Oct 21
First Quarter
Oct 29
Full
Nov 6
Last Quarter
Nov 13
New

Hourly Weather History & Observations

Time (MDT) Temp. Windchill Dew Point Humidity Pressure Visibility Wind Dir Wind Speed Gust Speed Precip Events Conditions
12:16 AM 41.0 °F 33.9 °F 5.0 °F 23% 30.17 in 10.0 mi SSW 12.7 mph 25.3 mph N/A   Clear
12:36 AM 41.0 °F 33.5 °F 3.2 °F 21% 30.17 in 10.0 mi SSW 13.8 mph 23.0 mph N/A   Clear
12:56 AM 41.0 °F 32.5 °F 3.2 °F 21% 30.17 in 10.0 mi SSW 17.3 mph 24.2 mph N/A   Clear
1:16 AM 41.0 °F 33.9 °F 3.2 °F 21% 30.18 in 10.0 mi SSW 12.7 mph 19.6 mph N/A   Clear
1:36 AM 41.0 °F 33.9 °F 3.2 °F 21% 30.17 in 10.0 mi SW 12.7 mph 20.7 mph N/A   Clear
1:56 AM 41.0 °F 33.5 °F 3.2 °F 21% 30.18 in 10.0 mi SW 13.8 mph 19.6 mph N/A   Clear
2:16 AM 41.0 °F 32.8 °F 3.2 °F 21% 30.18 in 10.0 mi SW 16.1 mph 21.9 mph N/A   Clear
2:36 AM 37.4 °F 29.3 °F 5.0 °F 26% 30.19 in 10.0 mi WSW 12.7 mph - N/A   Clear
2:56 AM 37.4 °F 29.3 °F 5.0 °F 26% 30.19 in 10.0 mi SW 12.7 mph 18.4 mph N/A   Clear
3:16 AM 37.4 °F 31.4 °F 5.0 °F 26% 30.19 in 10.0 mi WSW 8.1 mph 16.1 mph N/A   Clear
3:36 AM 37.4 °F 31.4 °F 5.0 °F 26% 30.18 in 10.0 mi SW 8.1 mph - N/A   Clear
3:56 AM 37.4 °F 29.8 °F 6.8 °F 28% 30.18 in 10.0 mi SW 11.5 mph - N/A   Clear
4:16 AM 37.4 °F 29.8 °F 6.8 °F 28% 30.19 in 10.0 mi SW 11.5 mph 19.6 mph N/A   Clear
4:36 AM 37.4 °F 30.3 °F 6.8 °F 28% 30.19 in 10.0 mi SSW 10.4 mph 17.3 mph N/A   Clear
4:56 AM 37.4 °F 30.3 °F 8.6 °F 30% 30.19 in 10.0 mi SSW 10.4 mph - N/A   Clear
5:16 AM 37.4 °F 31.4 °F 8.6 °F 30% 30.19 in 10.0 mi SW 8.1 mph 16.1 mph N/A   Clear
5:36 AM 37.4 °F 30.3 °F 10.4 °F 33% 30.19 in 10.0 mi SW 10.4 mph 18.4 mph N/A   Clear
5:56 AM 37.4 °F 29.8 °F 10.4 °F 33% 30.19 in 10.0 mi SSW 11.5 mph 18.4 mph N/A   Clear
6:16 AM 37.4 °F 28.9 °F 10.4 °F 33% 30.19 in 10.0 mi South 13.8 mph - N/A   Clear
6:36 AM 37.4 °F 28.2 °F 10.4 °F 33% 30.19 in 10.0 mi South 16.1 mph - N/A   Clear
6:56 AM 37.4 °F 27.8 °F 10.4 °F 33% 30.19 in 10.0 mi South 17.3 mph - N/A   Clear
7:16 AM 37.4 °F 27.8 °F 10.4 °F 33% 30.19 in 10.0 mi South 17.3 mph - N/A   Clear
7:36 AM 37.4 °F 29.8 °F 10.4 °F 33% 30.20 in 10.0 mi South 11.5 mph 18.4 mph N/A   Clear
7:56 AM 37.4 °F 29.3 °F 10.4 °F 33% 30.20 in 10.0 mi South 12.7 mph 17.3 mph N/A   Clear
8:16 AM 37.4 °F 28.9 °F 10.4 °F 33% 30.20 in 10.0 mi South 13.8 mph 17.3 mph N/A   Clear
8:36 AM 41.0 °F 35.2 °F 10.4 °F 29% 30.21 in 10.0 mi SSW 9.2 mph - N/A   Clear
8:56 AM 41.0 °F 35.2 °F 10.4 °F 29% 30.21 in 10.0 mi South 9.2 mph - N/A   Clear
9:16 AM 42.8 °F 37.0 °F 10.4 °F 27% 30.22 in 10.0 mi South 10.4 mph 17.3 mph N/A   Clear
9:36 AM 44.6 °F 37.8 °F 10.4 °F 25% 30.22 in 10.0 mi South 15.0 mph 20.7 mph N/A   Clear
9:56 AM 44.6 °F 39.2 °F 12.2 °F 27% 30.22 in 10.0 mi South 10.4 mph 18.4 mph N/A   Clear
10:16 AM 44.6 °F 37.4 °F 12.2 °F 27% 30.23 in 10.0 mi South 16.1 mph 21.9 mph N/A   Clear
10:36 AM 44.6 °F 37.4 °F 12.2 °F 27% 30.22 in 10.0 mi South 16.1 mph 23.0 mph N/A   Clear
10:56 AM 44.6 °F 41.4 °F 12.2 °F 27% 30.23 in 10.0 mi SSW 5.8 mph 19.6 mph N/A   Clear
11:16 AM 44.6 °F 40.7 °F 12.2 °F 27% 30.22 in 10.0 mi SSW 6.9 mph - N/A   Clear
11:36 AM 46.4 °F 42.9 °F 14.0 °F 27% 30.22 in 10.0 mi SSW 6.9 mph 16.1 mph N/A   Clear
11:56 AM 44.6 °F 42.2 °F 12.2 °F 27% 30.22 in 10.0 mi WSW 4.6 mph 17.3 mph N/A   Clear
12:16 PM 46.4 °F 41.9 °F 12.2 °F 25% 30.21 in 10.0 mi SW 9.2 mph 18.4 mph N/A   Clear
12:36 PM 46.4 °F 41.5 °F 14.0 °F 27% 30.20 in 10.0 mi South 10.4 mph - N/A   Clear
12:56 PM 50.0 °F - 15.8 °F 26% 30.20 in 10.0 mi SSW 6.9 mph 16.1 mph N/A   Clear
1:16 PM 53.6 °F - 19.4 °F 26% 30.19 in 10.0 mi SSE 13.8 mph 21.9 mph N/A   Clear
1:36 PM 51.8 °F - 17.6 °F 26% 30.19 in 10.0 mi SSW 12.7 mph 20.7 mph N/A   Clear
1:56 PM 51.8 °F - 17.6 °F 26% 30.18 in 10.0 mi South 9.2 mph - N/A   Clear
2:16 PM 53.6 °F - 17.6 °F 24% 30.18 in 10.0 mi WSW 5.8 mph 20.7 mph N/A   Clear
2:36 PM 53.6 °F - 17.6 °F 24% 30.18 in 10.0 mi South 10.4 mph 16.1 mph N/A   Clear
2:56 PM 51.8 °F - 15.8 °F 24% 30.18 in 10.0 mi SW 4.6 mph - N/A   Clear
3:16 PM 53.6 °F - 17.6 °F 24% 30.18 in 10.0 mi WSW 6.9 mph - N/A   Clear
3:36 PM 51.8 °F - 14.0 °F 22% 30.18 in 10.0 mi West 15.0 mph 21.9 mph N/A   Clear
3:56 PM 51.8 °F - 14.0 °F 22% 30.18 in 10.0 mi WSW 8.1 mph 18.4 mph N/A   Clear
4:16 PM 51.8 °F - 14.0 °F 22% 30.19 in 10.0 mi SW 6.9 mph - N/A   Clear
4:36 PM 51.8 °F - 15.8 °F 24% 30.18 in 10.0 mi WSW 10.4 mph 19.6 mph N/A   Clear
4:56 PM 50.0 °F - 14.0 °F 24% 30.18 in 10.0 mi West 20.7 mph - N/A   Clear
5:16 PM 48.2 °F - 14.0 °F 25% 30.19 in 10.0 mi West 13.8 mph 19.6 mph N/A   Clear
5:36 PM 46.4 °F 39.2 °F 14.0 °F 27% 30.19 in 10.0 mi West 18.4 mph - N/A   Clear
5:56 PM 44.6 °F 38.8 °F 17.6 °F 34% 30.19 in 10.0 mi WSW 11.5 mph 18.4 mph N/A   Clear
6:16 PM 44.6 °F 38.4 °F 15.8 °F 31% 30.20 in 10.0 mi WSW 12.7 mph 19.6 mph N/A   Clear
6:36 PM 42.8 °F 34.8 °F 15.8 °F 34% 30.20 in 10.0 mi West 17.3 mph - N/A   Clear
6:56 PM 44.6 °F 40.7 °F 14.0 °F 29% 30.21 in 10.0 mi SSW 6.9 mph - N/A   Clear
7:16 PM 44.6 °F 40.7 °F 12.2 °F 27% 30.21 in 10.0 mi South 6.9 mph - N/A   Clear
7:36 PM 44.6 °F 40.2 °F 12.2 °F 27% 30.22 in 10.0 mi West 8.1 mph - N/A   Clear
7:56 PM 41.0 °F 33.5 °F 14.0 °F 33% 30.22 in 10.0 mi West 13.8 mph - N/A   Clear
8:16 PM 41.0 °F 34.7 °F 12.2 °F 31% 30.23 in 10.0 mi West 10.4 mph - N/A   Clear
8:36 PM 41.0 °F 33.9 °F 12.2 °F 31% 30.23 in 10.0 mi West 12.7 mph - N/A   Clear
8:56 PM 41.0 °F 33.9 °F 14.0 °F 33% 30.22 in 10.0 mi West 12.7 mph - N/A   Clear
9:16 PM 39.2 °F 34.2 °F 12.2 °F 33% 30.22 in 10.0 mi West 6.9 mph - N/A   Clear
9:36 PM 41.0 °F 39.0 °F 12.2 °F 31% 30.23 in 10.0 mi WSW 3.5 mph - N/A   Clear
9:56 PM 39.2 °F 33.0 °F 12.2 °F 33% 30.23 in 10.0 mi West 9.2 mph - N/A   Clear
10:16 PM 41.0 °F 35.2 °F 14.0 °F 33% 30.23 in 10.0 mi South 9.2 mph - N/A   Clear
10:36 PM 37.4 °F 32.1 °F 14.0 °F 38% 30.23 in 10.0 mi West 6.9 mph - N/A   Clear
10:56 PM 37.4 °F 34.9 °F 14.0 °F 38% 30.22 in 10.0 mi SW 3.5 mph - N/A   Clear
11:16 PM 37.4 °F 30.8 °F 14.0 °F 38% 30.22 in 10.0 mi South 9.2 mph - N/A   Clear
11:56 PM 39.2 °F 30.2 °F 15.8 °F 39% 30.22 in 10.0 mi South 17.3 mph - N/A   Clear